RH
72 70 76 87 93 91 87 79 64 52 51 54 52 50 44 33 22 12 7 6 6 6 7 7 4 4 7 10 11 12 13 14 14 15 20 26 28 30 30 31 31 31 30 30 30 29 29 29 28 29 29 29 29 29 29 29 28 27 25 24 22 20 19 18 18 17 16 15 14 14 8 3 2 1 1 1 1 1 1 1 2 8 15 18 21
77 80 81 84 93 93 87 86 77 62 58 63 62 61 59 53 43 28 13 6 5 6 6 7 7 4 5 8 10 11 12 14 15 14 17 23 28 30 30 31 31 31 31 31 31 30 30 30 29 29 29 30 30 30 30 29 28 26 24 22 20 18 16 15 15 14 14 14 13 14 11 5 2 2 1 1 1 1 1 1 1 3 9 15 19
84 88 88 86 90 85 81 87 86 74 67 70 69 68 69 66 60 49 33 17 6 5 5 5 6 6 5 5 8 10 11 12 14 15 15 19 24 28 30 31 31 31 31 31 31 31 31 30 30 30 30 30 30 30 30 29 27 26 24 21 17 13 12 11 11 11 12 12 12 13 13 9 4 2 2 2 1 1 1 1 1 1 3 9 15
88 96 93 82 81 81 82 87 87 81 74 77 77 74 76 75 70 63 52 37 19 7 4 4 4 5 6 6 7 8 10 11 13 15 15 15 19 25 29 30 30 30 30 31 32 32 31 31 31 31 31 31 30 29 29 28 27 25 23 20 15 8 5 5 5 6 8 9 11 12 12 11 6 3 2 2 1 1 1 1 1 1 1 3 10
88 95 94 82 79 82 87 88 86 84 78 77 78 79 81 81 79 74 66 55 38 23 10 4 3 4 5 7 8 8 9 10 11 13 15 15 15 18 23 27 29 29 29 30 31 32 32 32 31 31 31 31 31 30 28 28 27 24 22 19 13 6 2 2 2 2 4 5 7 9 10 11 8 4 2 2 2 2 1 1 1 1 1 1 4
77 80 84 86 87 84 88 88 81 81 78 74 76 80 81 80 81 80 78 69 57 48 34 14 5 4 6 8 10 11 10 10 11 12 14 15 15 15 17 21 24 26 27 28 29 30 31 32 32 31 30 30 31 30 29 28 26 23 22 18 10 4 2 1 1 1 2 3 3 5 6 8 8 6 3 2 2 2 1 1 1 1 1 1 1
64 69 76 81 88 88 85 81 76 75 75 75 77 78 80 80 81 82 86 87 79 71 57 35 17 10 11 15 16 15 13 12 11 11 12 14 15 16 15 16 17 20 23 25 27 29 30 31 31 32 31 30 29 28 28 27 27 24 22 18 10 3 1 1 1 1 1 2 2 2 3 4 6 5 4 2 2 2 1 1 1 1 1 1 1
60 68 75 73 78 86 82 74 75 78 76 77 78 78 81 83 84 83 84 92 95 86 72 56 38 24 19 21 24 21 18 17 14 11 11 12 13 15 16 16 16 16 18 20 23 25 28 29 29 30 30 31 31 29 27 25 25 24 23 20 12 5 1 1 1 1 1 1 1 1 2 3 4 4 3 2 2 2 2 1 1 1 1 1 1
64 71 76 76 74 77 75 71 76 79 79 80 78 77 80 84 87 85 80 84 91 90 85 77 58 40 29 26 27 26 24 20 16 13 11 11 11 12 13 14 15 16 17 17 18 20 22 24 25 26 26 27 28 28 27 25 23 22 21 19 14 8 4 2 1 1 1 0 1 1 1 2 2 3 3 2 2 2 2 1 1 1 1 1 1
70 82 79 79 78 73 67 71 78 78 78 79 78 79 82 87 91 89 84 80 81 85 90 88 75 59 47 37 33 29 25 22 18 15 12 11 10 9 9 9 11 13 15 17 17 17 18 19 20 21 21 21 22 22 23 23 23 22 19 15 11 8 5 3 2 1 1 0 0 0 1 2 2 2 2 2 2 2 1 1 1 1 1 1 1
58 83 86 79 79 79 72 73 80 79 81 80 80 85 86 88 89 87 86 80 75 78 85 91 88 78 66 55 47 41 33 26 21 17 14 13 10 9 8 7 7 8 10 13 15 17 17 18 18 18 19 19 19 19 20 20 21 22 20 16 11 7 5 4 3 1 1 1 0 0 1 1 2 2 2 2 2 2 2 1 1 1 1 1 1
26 49 65 62 63 79 86 85 85 84 86 84 82 85 86 86 84 83 85 81 76 74 77 88 93 87 81 74 66 63 55 40 31 26 21 17 14 12 11 9 8 7 7 7 9 12 14 16 17 17 18 18 18 18 19 19 20 20 20 17 14 11 9 6 3 1 1 0 0 0 0 1 1 1 2 2 2 2 1 1 1 1 1 1 1
10 14 24 28 33 57 80 89 91 90 90 88 86 84 81 83 85 85 85 83 83 77 72 82 92 92 90 86 81 81 75 60 46 40 33 27 21 16 13 10 8 7 6 6 6 6 8 11 12 13 13 14 15 15 16 16 17 18 18 17 16 13 10 6 2 1 1 1 0 0 0 1 1 1 2 1 2 2 1 1 1 1 1 1 1
7 6 9 12 14 28 53 79 91 92 91 90 92 88 80 82 88 92 90 85 84 79 74 82 91 94 93 89 88 89 88 78 64 55 51 44 36 28 21 15 11 9 6 4 4 4 3 4 6 7 8 8 8 8 9 10 11 12 12 12 11 9 6 2 1 1 1 1 0 1 0 1 1 1 1 1 1 1 1 1 1 1 1 1 1
7 6 7 9 11 14 30 59 76 81 80 79 89 95 86 82 86 91 93 88 84 82 82 83 83 86 90 91 90 87 89 89 80 73 70 67 61 55 46 37 33 28 21 16 16 13 10 7 4 3 3 4 4 4 4 4 5 6 5 5 5 4 3 2 1 1 1 1 1 1 0 1 1 1 1 1 1 1 1 1 1 1 1 1 1
9 8 7 7 9 11 18 33 49 61 64 61 75 93 94 88 86 87 90 90 88 87 87 86 78 72 74 82 86 86 87 89 88 88 86 82 79 80 77 70 63 56 49 48 47 41 34 27 21 14 8 4 3 3 2 2 2 3 3 3 3 2 2 2 2 1 1 1 1 1 1 1 1 1 2 1 1 1 1 1 1 1 1 2 2
12 11 10 9 7 9 11 15 25 38 44 45 56 75 86 91 93 92 92 92 91 88 87 90 86 78 73 72 75 81 85 86 86 88 91 89 85 84 86 86 84 78 72 72 72 69 63 58 50 41 30 20 13 8 5 4 3 3 2 2 2 3 3 2 2 2 2 2 2 2 1 1 1 1 1 1 2 2 1 2 1 2 2 2 2
15 13 12 11 10 9 8 9 11 16 21 27 37 50 62 73 83 89 89 91 93 90 89 92 91 89 86 78 72 71 75 82 83 82 86 90 88 85 82 82 84 84 83 83 81 79 78 76 73 67 59 48 37 27 19 13 10 8 6 4 3 2 2 2 2 2 2 2 2 2 2 2 1 1 1 1 2 1 1 2 1 2 2 2 2
17 17 15 14 12 11 10 9 8 8 9 12 17 25 34 42 52 61 66 72 79 81 83 86 87 88 87 85 85 77 70 73 77 77 80 83 86 87 84 80 80 79 80 80 79 78 77 79 81 83 81 75 64 52 41 31 23 18 14 11 8 6 5 3 3 3 3 3 3 3 3 3 2 1 1 1 2 2 2 2 2 2 2 2 2
20 20 19 17 15 14 13 11 9 9 8 7 7 9 12 16 20 25 29 34 41 48 54 60 67 72 72 72 77 76 67 63 64 67 73 78 83 89 89 83 79 78 76 75 74 73 74 78 82 86 88 87 80 69 59 50 42 35 30 25 20 16 12 9 6 4 3 3 3 3 4 4 3 2 1 1 1 1 2 2 3 3 3 3 3
22 21 20 20 19 17 16 15 13 11 9 8 8 7 6 7 7 7 9 9 11 15 19 23 30 36 38 37 37 40 40 40 41 43 48 56 63 72 83 88 86 82 77 75 75 74 72 73 77 83 86 88 84 77 71 66 61 57 54 50 45 39 33 28 22 17 13 9 7 5 4 4 4 3 3 3 2 2 3 4 5 5 4 4 4
21 21 21 20 20 20 19 18 17 16 14 11 9 9 7 7 7 6 6 6 5 5 6 6 8 9 10 10 9 10 12 13 15 15 16 19 22 27 41 61 75 82 86 85 79 77 76 73 72 76 82 88 86 81 81 79 75 74 74 71 68 64 60 56 51 45 40 34 28 22 16 10 7 5 4 3 4 4 4 4 5 6 7 5 5
19 19 19 20 20 20 20 19 19 19 18 17 15 13 11 9 8 8 7 6 6 5 5 5 5 5 5 5 4 5 5 4 5 5 4 4 5 5 7 16 29 46 71 89 87 81 81 81 78 74 78 86 87 85 87 88 85 83 85 86 82 76 72 71 69 68 67 63 57 50 41 32 21 14 9 6 5 4 5 11 10 6 9 9 7
17 17 18 18 18 19 19 20 20 19 19 19 19 18 16 15 14 13 12 11 10 9 8 7 6 6 5 5 4 4 4 4 4 4 4 4 3 4 3 3 3 7 23 44 56 60 66 77 84 82 80 84 88 89 90 92 91 89 92 92 88 86 86 85 84 83 85 84 81 75 69 59 45 33 22 13 9 3 7 21 19 7 8 11 10
19 18 18 18 18 18 18 19 18 19 20 20 20 20 19 18 17 17 17 16 17 16 14 13 12 11 9 8 7 6 5 4 4 4 4 4 4 4 3 3 4 2 2 5 12 19 28 46 71 84 85 84 87 90 93 96 93 89 92 93 92 93 93 93 94 92 93 95 96 93 87 78 67 55 43 29 19 8 6 14 12 5 6 8 11
21 21 20 18 18 18 17 18 17 17 17 17 18 18 18 18 17 16 16 16 17 17 18 17 16 16 15 14 13 12 10 8 7 6 5 4 4 4 4 3 3 4 4 3 2 3 5 15 38 61 75 83 89 89 90 94 92 87 87 88 92 93 87 87 93 95 97 99 99 99 95 85 75 66 59 48 36 23 12 8 7 7 6 7 13
21 22 22 20 19 19 18 18 18 17 16 16 16 17 17 17 17 16 15 15 15 16 17 17 18 18 17 18 17 16 16 15 14 13 11 10 8 7 5 5 4 3 3 4 3 4 3 4 12 24 39 58 78 87 89 90 91 92 91 90 92 92 88 89 91 93 97 99 99 100 98 91 79 72 68 63 53 42 30 19 13 11 9 8 11
24 22 21 20 20 20 19 19 19 19 19 18 18 18 17 17 16 15 14 14 13 12 13 14 15 16 16 16 16 16 17 16 16 16 16 15 15 13 12 10 9 7 5 5 4 4 4 5 7 11 15 25 40 62 82 92 93 93 92 92 95 95 92 91 91 92 95 97 99 99 99 96 87 79 76 72 65 56 46 37 29 22 16 11 9
27 25 23 21 19 19 18 19 20 20 21 21 21 20 20 19 17 16 15 15 13 11 10 11 11 12 12 12 13 13 13 14 14 14 15 15 15 15 16 15 14 13 10 9 7 6 5 5 6 12 18 23 26 36 58 79 91 93 90 88 92 93 92 90 89 92 95 97 98 99 100 99 94 88 83 79 73 65 58 51 43 35 27 19 12
26 25 24 22 20 19 18 17 18 18 19 19 20 20 20 20 19 18 17 16 16 14 12 11 10 10 10 10 10 10 10 11 11 11 11 12 13 13 13 14 14 15 14 13 11 10 10 9 7 7 12 22 36 45 51 61 74 82 84 83 86 88 85 80 79 87 95 97 97 98 99 99 97 96 92 87 82 80 78 70 60 50 41 31 20
29 27 25 22 19 19 19 18 17 16 16 16 16 17 17 17 17 17 16 16 16 16 15 14 13 12 11 10 9 8 8 8 8 9 9 9 9 10 11 11 12 12 12 12 11 10 11 12 11 11 8 9 19 33 43 49 56 63 67 68 72 74 71 63 62 71 84 93 96 97 97 98 98 98 97 95 94 94 94 92 85 75 65 55 40
36 35 34 29 23 19 17 18 18 16 15 15 15 14 14 14 14 14 14 15 15 15 14 14 14 13 12 11 10 9 8 8 7 7 7 7 8 8 8 9 9 10 10 9 8 7 8 10 11 12 13 11 9 11 16 22 30 44 55 56 56 58 59 58 57 60 69 79 85 90 95 96 97 98 98 98 98 97 96 98 98 93 87 80 66
40 41 41 39 33 25 18 17 18 18 18 17 16 16 14 13 13 13 12 12 12 12 12 12 12 11 11 11 10 10 9 9 9 8 8 7 7 7 8 8 8 8 8 8 8 6 6 8 9 9 10 12 13 12 11 9 10 19 34 45 50 54 57 59 59 57 58 62 66 77 90 94 95 98 99 97 96 95 96 98 99 98 96 91 80
42 43 43 44 42 37 29 21 17 17 18 19 19 19 18 17 15 14 13 12 12 12 12 12 11 11 10 10 10 9 9 9 8 8 8 7 7 7 7 7 7 7 7 7 7 6 5 5 6 7 8 9 10 11 12 13 11 9 13 22 35 50 61 63 62 56 50 48 48 56 75 89 93 94 96 98 95 92 95 98 98 99 98 96 87
43 44 45 46 45 43 40 34 25 19 17 18 19 19 19 19 17 16 14 13 13 13 13 12 12 11 11 11 10 9 9 9 9 8 8 7 7 7 7 6 6 6 7 7 7 6 6 6 6 6 6 7 8 9 10 11 12 13 11 10 13 26 40 47 52 52 45 44 45 42 51 74 88 88 90 97 93 88 93 98 96 98 99 99 95
44 45 46 47 47 47 46 43 37 28 20 18 18 18 19 19 18 17 15 14 14 14 14 13 12 12 11 10 10 10 9 9 8 8 7 7 7 6 6 6 6 6 6 6 6 6 6 5 6 6 6 7 7 8 10 10 10 11 12 12 10 10 16 22 29 34 35 45 58 52 41 53 74 79 81 86 84 82 91 96 94 94 98 100 99
47 47 47 47 48 49 49 47 44 38 29 22 19 17 18 18 18 17 15 14 14 14 15 14 13 13 12 11 10 9 9 8 7 7 6 6 6 6 6 6 6 6 6 5 5 6 5 5 5 5 6 7 7 8 9 9 10 10 10 12 12 10 17 28 32 27 21 34 63 69 48 39 51 60 65 70 69 68 76 87 94 96 98 100 100
47 48 49 49 49 51 51 49 47 44 36 29 23 20 18 17 18 18 16 15 15 15 15 14 14 13 13 12 11 10 9 7 6 7 6 6 6 5 5 5 5 5 5 6 5 5 5 5 5 5 5 6 7 8 10 10 10 10 9 10 11 13 23 37 41 32 17 16 43 65 55 39 38 43 48 53 55 56 60 71 87 95 95 97 100
48 48 49 49 51 53 54 52 50 47 41 34 29 24 20 17 17 18 17 16 16 16 15 14 14 14 13 12 11 10 9 8 7 7 6 7 6 6 6 5 5 5 5 5 5 5 5 5 4 4 4 6 6 7 9 11 11 11 10 9 9 15 29 42 42 35 24 16 23 36 41 44 47 45 47 48 49 53 57 63 76 83 84 86 91
50 50 49 50 51 53 55 55 54 51 46 39 33 29 24 20 17 16 18 18 17 16 16 15 14 13 13 12 11 10 9 8 8 8 7 7 6 6 6 5 5 5 5 5 5 4 5 5 5 5 4 4 5 6 8 10 11 12 12 10 8 11 28 50 55 51 45 39 33 26 24 37 49 52 57 58 55 58 65 69 71 71 71 73 77
58 56 52 50 51 54 56 56 57 56 51 44 38 33 29 24 19 17 17 18 18 17 17 16 15 14 13 12 12 11 10 9 8 8 7 7 6 6 5 5 5 5 5 5 5 5 5 4 4 5 5 5 5 6 7 8 11 12 12 12 10 7 15 37 61 73 71 66 63 54 42 39 44 52 60 64 63 63 66 70 69 66 62 62 67
65 61 57 54 52 55 57 56 58 60 56 51 44 38 34 30 24 20 18 18 18 18 18 16 15 14 13 13 12 11 10 9 9 8 7 6 6 5 5 5 5 5 6 5 5 5 5 5 5 5 5 5 5 6 6 7 9 12 13 14 12 10 8 14 37 66 82 85 83 82 78 66 55 54 59 63 68 69 65 64 64 61 56 53 57
72 66 63 60 56 57 59 57 59 63 61 56 49 43 40 36 29 23 20 19 19 19 18 17 15 14 14 12 12 11 10 9 8 8 8 7 6 6 6 6 6 6 6 6 6 7 6 5 5 6 5 5 6 7 6 7 9 10 13 15 14 13 11 7 13 35 64 87 91 91 93 85 68 56 51 56 67 72 70 68 65 61 57 51 53
81 74 70 67 61 60 62 60 60 65 66 61 54 48 45 40 33 27 24 22 20 19 18 17 15 14 13 12 11 10 9 9 8 8 8 8 8 8 8 8 8 8 8 7 7 8 8 8 7 6 7 6 6 8 8 9 10 10 11 14 15 14 12 10 9 12 33 68 92 96 93 87 75 59 44 45 59 69 75 80 80 76 71 63 65
80 76 73 73 68 66 68 65 63 70 72 65 57 52 47 43 37 31 27 24 22 20 18 17 15 13 12 11 10 10 9 9 8 8 8 8 9 9 9 9 10 10 11 12 11 11 10 10 9 8 10 10 9 9 11 11 11 11 11 13 16 17 14 12 11 8 12 34 69 92 94 87 79 64 48 45 56 69 78 85 89 88 83 78 82
80 80 78 74 71 73 78 73 70 77 78 66 58 54 50 45 38 31 27 24 22 20 18 16 15 13 12 11 10 10 9 9 9 9 9 10 10 10 10 11 11 12 13 13 14 15 15 14 12 11 12 14 12 11 13 14 13 13 13 13 15 16 16 14 12 11 8 10 31 59 75 81 83 74 62 57 60 71 83 87 90 91 88 87 91
85 91 89 81 76 79 83 81 80 85 79 65 59 56 50 43 36 29 26 23 21 20 18 16 14 12 11 11 10 9 9 9 10 10 10 10 10 10 11 11 12 12 13 14 15 16 17 17 16 15 15 16 16 15 15 15 15 16 16 16 16 15 16 16 13 12 12 8 11 24 41 65 84 85 81 76 69 74 86 90 90 91 90 90 93
85 90 91 86 84 85 87 88 89 86 75 64 60 55 46 39 33 28 26 23 20 19 16 14 13 11 11 10 9 9 9 10 10 10 11 11 10 10 10 10 11 11 11 13 14 15 17 18 18 18 17 18 18 17 17 17 17 18 18 18 17 16 16 16 15 13 12 11 10 11 18 43 73 89 95 93 82 79 85 89 90 92 92 90 91
84 88 88 85 88 92 93 94 90 80 70 63 57 49 40 35 31 28 25 21 19 17 14 13 12 11 11 11 10 10 10 10 11 11 11 11 10 10 10 9 9 9 9 9 10 11 14 16 18 20 20 20 20 19 19 19 18 19 20 18 18 18 17 16 15 15 14 13 12 11 10 20 46 74 94 99 92 88 90 92 92 96 97 93 92
87 93 96 93 95 98 95 89 82 73 65 58 49 42 38 35 31 27 23 20 17 15 13 13 12 12 12 12 12 12 11 11 11 10 10 10 9 9 9 8 7 7 7 7 8 9 10 12 15 18 21 22 22 21 20 20 20 20 20 17 17 18 17 17 16 15 15 14 13 13 12 10 19 44 73 93 99 95 96 98 96 96 98 97 95
92 98 101 97 93 91 87 80 73 66 58 50 45 41 37 33 29 24 21 18 16 14 14 13 13 14 14 13 12 12 11 11 10 10 9 9 8 8 7 7 7 6 7 8 9 10 11 11 12 14 17 20 22 22 22 20 20 21 21 19 19 19 16 15 16 15 14 15 14 15 15 11 11 21 44 75 97 100 98 100 98 96 97 98 99
Wind_Speed
10 11 12 12 13 13 12 12 10 7 4 2 2 2 2 3 5 6 7 10 13 16 17 20 25 27 27 26 26 25 24 23 23 24 25 25 23 22 21 20 19 18 17 16 15 15 14 14 13 12 12 11 10 9 9 9 9 10 10 11 11 12 11 12 11 11 11 12 12 12 12 12 12 12 14 16 17 19 21 21 19 17 16 15 15
11 12 13 13 14 14 13 13 13 10 6 4 3 2 1 1 2 4 5 7 10 14 17 19 22 25 27 27 27 26 25 23 23 23 25 26 25 24 23 22 21 20 18 17 16 16 15 15 14 14 13 13 12 12 11 11 10 10 11 12 13 13 13 13 13 12 12 12 12 12 12 12 12 12 12 14 16 17 18 20 20 18 16 15 15
13 13 14 14 13 13 13 14 15 14 11 8 7 5 3 2 1 2 3 5 8 11 15 18 20 23 26 28 28 27 26 25 24 24 25 26 27 26 25 24 23 21 20 19 18 17 17 16 16 15 15 14 14 14 13 13 12 11 12 14 15 16 16 16 15 14 13 12 13 12 12 12 12 12 12 13 14 15 16 18 19 19 17 15 14
15 15 14 13 13 14 14 15 16 16 13 10 9 8 7 6 4 2 2 3 5 8 12 16 19 22 24 27 29 29 28 27 26 25 25 26 28 28 27 26 25 24 22 21 20 19 19 18 18 17 16 16 16 15 15 15 14 13 14 16 17 18 18 17 17 16 15 14 14 13 13 13 13 12 12 12 13 14 15 16 17 18 18 16 14
17 16 14 14 15 16 15 17 17 15 14 12 9 8 7 7 6 4 3 2 3 4 7 11 16 20 23 25 28 30 30 29 28 27 26 26 27 28 28 28 27 26 25 23 22 21 20 20 20 19 18 18 18 17 17 17 17 16 16 18 19 19 18 17 17 17 16 16 15 15 14 14 13 13 12 12 12 12 14 14 15 16 17 17 15
19 17 15 16 17 17 17 17 16 14 13 12 10 9 8 7 7 6 6 5 4 4 4 7 11 15 19 22 25 28 30 30 29 28 27 26 26 27 28 28 28 27 27 26 25 24 23 23 22 21 21 20 20 19 19 19 19 18 19 20 20 20 19 18 17 17 17 17 16 16 15 15 15 14 13 12 12 12 12 13 13 14 15 16 16
20 18 18 19 19 19 17 14 13 12 11 11 11 10 9 9 8 7 5 6 5 5 5 6 8 10 14 17 20 24 28 30 30 29 28 27 27 26 27 27 27 27 27 27 27 26 26 25 25 24 23 22 21 21 21 21 20 21 21 22 22 21 20 19 18 18 18 18 17 17 17 16 16 16 15 13 13 12 12 12 12 13 13 15 15
22 20 21 22 21 19 14 11 10 11 11 12 13 12 12 12 11 8 7 7 7 6 6 7 8 9 11 13 16 20 24 27 29 29 28 28 27 26 26 26 26 26 27 28 28 28 28 28 27 27 26 25 25 24 23 23 22 22 23 24 24 23 22 21 20 19 19 19 19 18 18 17 17 17 16 15 14 13 13 13 12 12 12 13 14
24 23 23 22 21 15 11 11 12 13 14 14 15 16 16 15 13 11 9 9 9 10 10 9 9 10 12 13 14 15 19 23 26 27 28 27 27 26 26 26 26 26 26 27 28 29 29 29 29 28 28 27 27 27 26 25 25 24 24 25 26 25 24 23 23 21 20 19 20 20 19 19 18 18 17 16 15 14 13 14 13 12 12 12 12
26 25 24 23 20 15 14 15 14 14 14 15 16 17 18 17 15 13 12 11 12 12 13 13 11 10 12 13 13 13 16 19 22 24 25 25 25 25 26 26 27 27 27 26 27 28 29 30 30 29 29 28 28 27 27 27 27 27 27 27 27 27 26 26 25 24 23 21 21 21 21 20 19 19 18 17 16 15 14 14 14 14 13 12 12
27 27 27 25 22 18 17 17 16 16 15 15 17 18 20 19 16 15 14 12 12 11 12 15 13 10 11 11 11 12 14 17 19 20 21 22 22 23 24 25 26 27 27 27 27 28 28 29 29 29 29 28 28 27 26 27 27 28 28 28 28 28 28 28 27 27 26 24 23 23 23 22 21 20 19 18 16 16 15 15 15 15 14 13 12
28 29 29 28 26 22 19 17 17 17 16 17 19 20 20 17 15 15 15 12 11 11 12 15 16 13 11 10 9 9 11 13 16 17 18 19 20 20 20 20 22 24 26 28 28 28 28 29 29 28 28 28 28 27 27 27 27 28 29 30 30 30 30 30 29 28 28 27 26 25 25 24 22 21 20 19 18 17 16 16 16 16 15 14 13
24 26 28 29 28 27 23 19 18 18 18 20 21 19 18 16 15 16 15 13 13 12 11 14 17 16 12 10 9 7 8 10 12 14 16 17 17 17 17 17 18 19 22 24 26 27 29 30 30 30 30 29 29 29 28 28 28 29 30 31 32 32 31 31 31 30 30 30 29 27 27 26 24 22 21 20 19 18 17 17 17 16 16 16 15
20 21 22 24 26 28 26 23 22 21 19 19 19 18 18 18 18 17 16 15 15 14 11 12 14 14 13 12 11 9 9 8 9 11 12 12 13 14 15 16 16 16 18 19 20 22 24 27 29 30 31 31 31 30 30 30 30 31 32 32 33 33 33 32 32 32 32 32 32 29 28 27 25 23 22 21 20 19 18 18 18 17 17 17 17
16 17 18 19 21 25 27 26 25 24 22 19 17 18 20 20 19 18 18 17 17 15 13 12 13 12 12 13 12 11 10 10 10 10 9 10 10 11 13 14 14 15 16 16 16 17 19 21 24 26 27 28 29 30 31 31 32 33 34 34 35 35 35 35 35 35 35 34 33 31 29 27 26 24 23 23 22 21 20 19 19 19 18 18 18
12 13 14 15 17 20 24 25 26 26 24 20 17 17 20 20 17 17 18 18 18 18 16 15 15 14 14 14 14 14 13 13 13 12 11 11 11 12 12 13 14 15 15 14 14 15 16 17 19 21 23 24 26 27 28 30 31 32 33 34 35 36 36 36 36 36 35 34 32 31 30 28 27 26 24 24 23 23 22 21 21 20 20 20 19
10 10 11 11 13 15 19 22 24 26 25 23 20 18 19 20 18 17 18 19 20 20 19 18 17 17 18 18 17 16 15 15 16 16 15 14 14 14 14 15 15 16 15 14 14 15 15 16 17 18 20 22 23 25 26 26 27 28 29 31 33 33 34 34 35 35 34 33 32 31 31 30 28 27 26 25 25 25 24 24 23 22 22 21 21
8 8 8 9 10 12 13 16 19 22 24 24 23 22 22 22 21 19 20 21 21 22 21 21 21 20 20 21 21 20 19 19 19 20 19 18 18 18 17 18 18 18 18 17 16 16 17 17 17 17 18 20 22 23 24 25 25 26 27 28 29 30 31 31 33 33 32 31 31 31 31 31 31 29 28 27 27 27 27 26 25 25 24 23 23
6 6 7 7 8 9 10 11 13 16 19 21 22 24 25 25 24 23 23 24 24 24 24 24 24 24 24 25 25 24 24 24 24 23 22 22 22 21 21 21 21 21 21 21 20 19 19 19 20 19 18 19 20 21 22 23 24 25 26 27 28 29 29 30 30 31 31 30 30 30 30 31 31 31 30 30 29 29 29 28 27 26 26 25 25
5 5 6 6 7 8 9 9 10 11 13 15 17 20 22 24 25 25 25 26 26 27 27 27 27 27 27 28 28 28 28 29 29 27 26 25 23 23 24 25 24 24 24 24 23 22 21 21 22 21 20 20 20 20 21 22 23 24 25 26 27 28 29 29 29 30 30 30 29 29 29 29 30 31 31 31 31 31 31 29 28 28 27 26 26
7 7 6 6 7 7 8 8 9 9 10 11 13 15 18 20 21 22 23 24 25 26 26 27 28 28 29 29 30 30 31 31 32 31 31 30 28 26 26 27 26 26 26 26 25 25 24 23 23 23 22 21 21 20 20 21 21 21 22 23 25 26 27 28 28 28 28 29 29 29 29 29 29 31 31 32 32 32 32 31 30 30 29 28 27
10 9 9 8 8 8 9 9 8 8 9 9 10 12 15 17 18 19 19 20 21 22 23 24 26 27 28 28 28 29 30 31 32 32 32 32 33 32 31 30 29 27 26 27 26 26 26 26 26 24 23 22 22 21 20 20 20 20 20 22 23 24 24 24 24 24 24 25 26 27 28 29 29 30 31 32 33 33 32 32 31 30 30 29 28
11 11 10 10 9 10 10 10 9 9 9 9 9 10 12 14 16 16 17 18 18 19 20 22 23 24 25 26 26 27 29 29 30 31 31 31 32 33 32 32 32 30 29 30 29 28 28 28 28 27 25 24 24 23 22 22 22 21 21 21 22 22 22 22 21 20 19 20 21 23 24 26 28 29 31 31 30 31 31 31 31 30 29 30 29
11 11 11 10 10 10 10 11 11 11 10 10 10 10 11 12 13 14 15 16 16 17 18 19 20 21 22 23 24 25 26 28 28 29 31 31 32 32 32 32 32 31 31 33 34 33 33 31 30 30 28 26 26 27 26 26 25 24 23 22 21 21 20 20 20 18 18 19 20 21 21 23 25 27 29 29 28 28 29 30 31 30 28 28 29
11 11 11 11 10 10 11 11 11 12 12 12 11 11 11 12 13 14 15 15 15 16 17 17 18 19 20 21 21 22 24 25 26 27 29 30 31 32 33 33 33 31 31 32 33 34 35 35 34 33 31 29 29 30 30 31 31 28 25 23 22 20 19 18 19 20 19 20 22 23 23 23 24 24 26 27 27 27 28 29 31 30 29 28 28
11 11 12 11 11 11 11 11 12 12 13 13 13 13 13 14 14 15 15 16 16 16 17 17 17 18 19 20 20 21 22 23 24 25 26 27 29 30 31 32 32 32 32 32 31 30 31 34 38 37 34 33 33 33 34 35 35 31 27 26 24 23 21 19 20 21 22 22 22 24 25 24 23 23 24 25 26 26 27 29 31 31 30 28 26
10 10 11 12 11 11 11 12 12 13 13 14 15 15 15 16 16 16 17 17 18 18 18 18 18 18 19 19 20 20 21 21 22 23 24 25 26 28 29 30 31 31 31 31 31 30 28 30 35 37 38 37 36 36 36 37 37 34 33 31 29 28 28 26 23 22 24 24 23 24 25 25 23 23 22 23 24 25 26 28 30 30 31 29 27
9 10 11 11 12 12 12 13 13 14 15 15 16 16 17 18 18 18 18 19 19 19 19 20 20 20 20 21 21 22 22 22 23 23 24 24 25 26 27 29 30 30 30 30 29 29 28 29 30 32 36 38 39 39 37 37 37 38 37 37 35 34 34 34 31 27 26 26 26 26 26 26 25 24 23 23 23 23 23 26 28 28 29 29 28
10 10 11 11 12 12 13 13 14 15 15 16 17 17 18 18 19 19 19 19 19 19 19 19 20 20 21 21 22 23 23 24 24 24 25 25 25 26 27 29 31 32 31 30 29 27 27 28 28 28 31 34 37 39 39 39 38 39 39 39 40 38 37 38 36 33 31 29 29 28 27 27 27 26 25 25 24 22 20 21 24 25 26 27 28
11 12 13 13 13 13 13 13 14 15 16 17 17 18 18 19 19 19 19 20 19 19 19 18 18 19 19 20 21 22 22 23 24 25 26 27 27 28 29 30 31 33 34 34 32 29 27 28 28 28 30 32 33 36 38 40 40 41 41 42 43 42 41 41 40 37 35 33 31 30 29 29 29 27 26 26 25 23 20 19 21 22 22 24 26
10 12 14 15 15 15 14 14 15 15 16 17 17 18 19 19 20 20 20 20 20 20 20 19 19 18 18 19 19 20 21 21 23 24 25 27 28 29 30 31 32 34 35 37 37 33 30 31 29 29 31 32 33 35 37 38 40 42 43 44 44 45 44 43 43 42 39 36 33 33 33 31 30 30 29 27 24 24 24 21 21 21 20 21 23
12 12 14 15 15 16 16 16 16 16 16 17 17 18 18 18 19 19 20 20 20 20 20 20 19 19 18 18 18 18 19 19 21 22 23 25 26 28 29 31 32 34 35 37 39 35 33 34 34 32 32 33 33 35 36 37 39 41 43 44 44 44 44 43 44 44 43 40 37 36 36 35 34 32 31 28 24 23 24 23 23 23 21 21 22
14 15 15 15 16 16 16 17 18 18 18 18 18 18 19 19 19 19 19 19 19 19 19 19 19 19 19 19 19 19 19 20 21 22 23 24 25 27 28 30 31 34 36 37 39 37 33 34 36 35 35 36 35 34 35 36 37 40 42 43 43 43 43 43 43 44 45 43 41 39 39 38 38 36 33 31 27 25 25 25 24 23 22 22 23
18 18 18 18 17 17 17 18 18 19 20 20 20 20 20 20 20 20 20 19 18 18 18 18 19 19 20 21 22 23 23 23 23 24 25 26 27 27 28 30 31 33 36 38 39 39 34 32 35 36 36 38 38 36 36 36 35 37 40 42 43 44 43 42 42 42 43 43 42 41 41 41 41 40 38 35 31 27 27 26 24 23 23 22 22
21 21 22 21 21 20 20 20 20 20 20 21 21 22 22 21 21 20 20 19 19 19 19 20 20 21 22 23 24 25 25 26 26 27 28 28 29 30 30 31 32 33 35 38 40 40 38 34 33 35 36 37 39 38 38 38 36 37 38 39 41 44 45 44 43 41 40 40 40 40 42 43 43 43 41 38 34 30 28 26 24 25 24 22 20
24 25 25 25 24 24 24 24 23 23 22 22 23 23 22 22 21 21 21 20 20 21 21 22 23 23 24 24 25 26 26 27 28 29 30 31 31 32 33 33 34 34 36 38 40 41 40 37 34 35 37 37 38 38 38 39 39 38 38 37 38 41 43 44 44 43 41 40 40 39 40 42 44 44 44 41 38 36 36 32 27 26 26 23 20
28 28 29 28 27 27 27 27 26 26 25 25 25 25 24 24 23 23 22 22 22 23 23 24 25 26 26 26 27 27 28 27 27 28 29 31 31 32 34 34 36 37 37 39 41 42 42 40 36 35 37 39 39 37 38 39 40 40 39 38 37 39 40 41 41 42 43 42 41 39 39 40 42 43 44 44 43 41 41 39 33 29 27 25 23
32 32 32 31 31 30 30 30 29 28 28 28 28 27 27 27 26 25 25 24 24 25 25 26 27 28 28 29 29 29 29 29 28 28 29 30 31 33 34 35 36 38 39 40 42 43 44 43 39 36 36 39 40 39 38 39 40 40 40 39 38 38 39 39 38 38 41 42 42 41 39 39 39 41 42 43 43 42 41 41 39 36 34 32 29
36 36 36 35 34 32 31 32 31 31 31 30 30 29 29 29 29 28 28 27 27 27 27 28 29 29 30 30 30 30 31 31 30 30 31 32 33 34 35 36 37 38 40 41 42 44 45 45 43 39 37 38 40 40 39 39 40 39 39 40 39 38 38 39 38 37 38 40 42 42 41 39 38 39 39 40 41 41 41 41 41 41 41 39 36
40 39 39 39 37 35 34 33 33 33 33 33 32 31 30 31 31 31 31 30 30 30 30 30 30 31 31 31 32 32 32 33 33 33 34 34 35 35 36 37 38 40 41 42 43 44 46 46 45 43 40 39 40 40 39 40 41 40 39 40 41 39 38 39 39 38 37 38 38 39 40 40 39 39 39 39 39 40 40 40 40 41 41 41 40
44 43 42 41 40 39 36 35 35 35 35 35 34 32 31 32 33 34 34 33 33 32 32 32 32 33 33 33 33 34 34 35 35 36 36 36 37 37 37 38 39 41 42 43 44 45 46 48 47 46 44 42 41 40 39 40 41 41 40 41 42 40 40 41 40 39 39 38 37 37 37 38 40 40 39 39 38 39 40 40 40 40 40 40 40
46 45 44 43 42 41 39 38 39 38 37 37 36 34 33 33 34 35 35 35 35 35 35 34 34 34 34 35 35 35 36 37 38 39 39 39 39 39 40 40 41 42 43 44 45 46 47 49 49 48 47 45 42 41 40 40 41 42 41 41 42 41 41 44 43 41 40 40 39 38 36 37 39 39 39 38 37 38 39 40 39 39 39 39 39
46 47 46 45 45 43 42 41 42 41 40 39 37 35 35 35 35 36 37 37 37 38 37 37 37 36 36 36 36 37 38 39 40 41 42 41 41 42 42 42 43 44 45 45 46 46 48 49 50 50 49 47 44 42 42 41 41 42 43 43 43 42 42 44 45 43 42 42 43 42 39 38 38 38 39 39 38 37 38 39 39 39 38 38 38
46 48 49 48 47 46 45 45 44 44 43 41 38 36 37 37 36 37 38 38 39 39 39 39 39 39 38 38 38 39 40 41 42 43 44 44 43 44 44 44 44 44 45 46 47 47 48 49 51 51 50 49 46 44 43 42 42 42 44 44 44 44 43 43 45 45 44 43 45 45 42 39 38 37 37 37 37 37 38 39 39 39 37 36 36
48 50 51 51 49 47 47 47 46 47 46 43 39 38 39 38 38 38 39 40 41 41 41 41 41 41 40 40 41 41 42 43 44 45 45 45 44 44 45 45 45 45 45 47 48 48 49 50 51 51 50 49 48 46 44 44 44 43 44 45 45 45 45 44 44 45 45 46 47 47 44 41 38 36 35 35 36 37 38 38 38 38 37 36 35
47 50 52 52 50 48 47 47 48 48 46 43 41 40 40 40 40 40 40 41 42 42 43 43 43 43 42 43 43 44 44 45 45 46 46 46 46 45 45 46 46 46 46 47 48 49 49 50 51 51 49 49 49 47 45 46 47 45 45 45 45 46 46 46 45 44 45 46 47 48 47 43 39 36 33 34 36 37 37 38 38 38 37 36 36
45 49 51 51 50 49 47 47 48 46 44 43 42 41 41 41 41 41 42 42 43 44 44 44 44 44 45 45 45 46 46 46 46 46 47 47 47 47 47 47 47 47 47 48 49 49 50 51 51 51 50 49 49 49 47 47 49 48 46 45 46 47 47 47 47 45 44 44 46 49 49 44 40 38 34 33 36 37 37 37 38 38 39 38 38
43 47 48 49 50 49 47 45 45 44 43 42 41 41 41 42 42 43 43 43 44 45 45 45 45 45 46 46 47 47 47 47 47 47 48 49 50 50 50 50 50 50 49 49 50 51 52 52 52 53 52 51 50 49 48 48 49 49 48 48 47 47 48 48 48 45 43 43 44 48 50 47 42 40 36 34 35 36 36 37 38 39 40 41 41
41 44 47 49 48 46 43 42 41 41 41 41 41 41 41 42 43 43 44 44 45 46 46 46 46 46 47 48 48 49 49 49 49 49 49 50 51 52 53 53 52 52 52 51 51 52 53 54 54 54 54 53 53 51 49 48 49 50 50 50 49 48 49 49 48 46 44 42 42 46 50 50 45 42 40 37 36 36 36 37 38 38 40 41 41
41 44 48 48 44 40 38 38 38 39 39 39 40 40 41 42 43 44 45 45 46 46 47 47 47 47 48 49 50 50 50 50 51 51 52 52 53 54 54 55 54 54 53 52 51 52 53 55 55 56 56 55 55 54 52 50 49 50 52 52 50 49 50 49 49 47 45 43 43 44 47 49 47 45 44 41 38 36 36 36 38 39 40 40 39
43 45 45 41 37 35 36 36 36 36 37 38 40 41 41 42 43 45 45 46 47 47 48 48 48 49 49 50 50 51 51 52 52 53 53 54 54 54 54 55 56 55 54 52 52 52 53 54 55 56 56 57 57 57 55 53 52 52 53 53 52 51 51 50 49 48 47 45 43 43 44 47 47 47 47 44 41 38 36 35 36 37 38 38 36
Wind_Direction
241 241 246 246 239 236 237 236 234 219 194 188 172 161 187 195 207 216 223 232 233 231 230 229 227 223 216 211 214 217 216 216 218 218 218 217 216 216 217 219 223 229 231 232 235 237 237 235 234 236 239 243 248 255 262 270 282 292 293 294 295 296 299 300 303 308 313 319 325 335 341 344 348 353 1 8 15 20 21 23 26 27 28 30 32
234 238 244 245 239 234 235 238 235 228 227 239 229 204 205 201 196 198 211 226 230 230 229 230 230 229 223 217 215 217 217 217 218 220 220 220 219 218 219 222 225 228 232 233 233 234 234 234 236 237 240 244 249 255 259 264 273 283 284 285 287 289 291 292 295 299 304 310 317 324 332 336 339 344 352 359 8 15 18 20 22 24 25 25 27
227 236 242 244 243 235 233 236 235 236 242 244 240 237 241 260 259 173 187 216 229 231 231 231 232 233 229 224 220 218 218 217 217 219 221 222 222 221 221 223 225 228 230 232 232 232 232 233 235 238 242 246 250 254 257 259 263 269 272 275 279 283 286 287 290 294 297 302 308 315 322 327 330 334 342 350 359 7 13 17 19 21 22 23 23
229 235 239 242 246 237 228 229 228 230 236 239 242 247 248 255 267 255 182 191 217 229 234 234 233 235 234 229 225 221 219 218 217 217 220 222 223 223 223 224 226 228 230 232 233 233 233 234 236 238 241 246 249 253 256 259 261 263 265 269 272 276 280 283 286 289 293 296 301 307 312 317 322 325 331 339 349 358 5 11 16 18 19 20 20
233 235 237 239 244 241 230 227 225 224 231 235 239 248 253 255 257 263 266 238 214 221 233 238 236 235 236 233 229 225 222 220 219 219 220 222 223 225 225 226 227 229 231 232 234 235 236 237 238 240 242 245 248 251 255 259 262 263 264 267 270 272 275 279 283 286 289 293 296 299 304 308 312 317 321 327 337 348 356 2 10 15 16 16 17
241 240 240 241 245 245 236 231 228 225 233 238 239 243 249 259 262 261 267 270 265 247 237 240 240 238 237 237 233 228 226 223 221 220 221 223 224 225 227 227 228 230 232 234 235 237 238 239 241 242 244 246 249 252 254 258 262 263 264 266 269 272 274 278 282 285 288 291 295 297 298 301 304 308 312 316 325 335 345 353 1 10 13 13 13
249 249 245 241 243 246 243 242 242 239 244 248 246 247 247 251 254 255 262 268 272 267 253 246 247 247 242 238 236 231 228 226 224 222 222 224 226 227 228 230 231 232 235 236 238 238 239 241 242 244 246 248 250 253 255 257 260 262 264 266 268 270 273 278 283 287 290 291 294 297 297 296 298 301 305 309 314 323 333 341 350 0 8 10 9
245 248 248 243 242 248 253 255 250 243 244 243 243 250 251 243 237 245 258 257 254 256 256 250 247 251 246 239 236 234 231 229 228 227 226 227 228 229 231 233 234 235 237 239 241 242 243 243 244 246 248 250 252 254 256 259 261 262 263 264 267 269 272 276 281 286 291 292 293 295 296 295 294 296 299 302 306 312 322 329 337 348 358 4 5
238 241 248 251 249 252 258 252 239 234 239 239 239 243 245 239 233 241 251 247 244 240 240 242 239 244 248 241 235 232 230 229 229 230 231 232 233 234 236 237 238 237 238 240 242 244 246 248 248 250 251 252 254 255 257 259 260 262 263 265 267 270 272 274 278 282 287 290 292 293 293 292 292 292 294 297 300 304 311 318 326 334 345 354 359
237 239 244 251 253 250 249 247 241 237 239 239 240 243 244 239 235 238 238 238 248 248 241 237 232 235 243 242 234 224 221 223 226 229 232 235 238 240 241 242 242 242 241 242 243 245 247 249 251 253 255 256 257 258 259 259 259 260 262 264 268 271 273 274 277 280 283 286 289 290 289 289 288 289 290 291 294 298 303 309 316 323 332 342 349
238 241 242 245 247 248 247 249 248 244 243 241 240 240 241 241 241 244 245 249 265 273 260 247 237 230 232 231 223 213 211 216 220 223 227 232 236 240 243 245 246 245 244 244 244 245 247 249 251 253 255 257 259 259 260 260 258 258 259 262 265 268 271 274 276 278 280 282 285 287 286 284 284 284 285 286 289 293 296 301 308 315 321 329 337
240 242 244 244 244 244 246 250 251 250 250 249 244 239 240 246 249 249 251 257 266 274 276 260 242 229 223 218 216 212 210 213 216 218 221 225 230 234 238 242 245 245 245 244 244 244 246 248 250 252 253 255 257 259 260 259 258 258 259 260 262 264 267 271 274 275 277 279 281 282 282 280 279 280 281 283 285 288 291 296 302 307 313 320 326
248 246 246 245 243 242 243 247 250 251 251 253 253 251 251 253 249 246 245 244 244 252 275 267 241 227 223 221 228 238 230 218 212 213 214 217 222 226 230 234 238 241 241 242 243 243 243 245 247 249 251 253 255 257 258 259 259 259 259 260 261 263 266 268 271 272 274 277 278 278 277 276 275 276 278 279 281 284 287 292 297 302 307 312 317
253 252 250 248 244 242 242 243 247 250 251 254 256 256 255 250 245 244 239 234 237 248 267 271 252 240 236 238 246 253 250 238 224 216 214 213 217 222 227 231 233 236 237 238 240 241 242 242 244 246 248 251 253 254 256 257 258 258 259 261 262 264 266 267 269 271 273 275 276 275 273 272 272 273 273 275 278 280 284 287 292 296 300 305 310
257 256 254 251 246 242 241 241 245 250 254 259 261 257 253 249 242 239 236 234 241 252 260 270 275 269 257 253 256 259 262 257 242 232 227 224 224 227 232 236 238 239 238 237 238 240 243 244 245 247 247 248 250 252 253 254 256 258 259 261 263 265 266 267 268 270 272 273 273 272 269 267 268 269 269 272 275 277 280 283 287 291 295 299 303
259 260 259 256 250 245 241 240 245 250 254 259 261 259 258 258 252 243 241 241 245 252 256 262 274 283 281 274 267 265 265 261 254 247 241 238 239 239 238 239 241 243 241 239 239 240 243 246 249 250 250 250 250 251 252 253 255 257 260 262 263 265 266 268 269 270 270 270 270 269 266 263 264 266 266 268 271 274 277 280 283 286 290 293 297
261 261 261 260 256 250 245 241 243 247 252 254 255 255 256 260 258 247 245 247 247 249 251 251 257 268 277 280 278 276 271 265 262 257 248 246 247 247 246 244 242 243 243 243 244 245 244 245 248 251 253 254 254 254 254 256 257 259 261 263 264 265 266 268 268 268 268 267 266 265 264 262 261 262 263 264 266 270 274 277 280 283 286 289 292
274 270 266 262 259 256 251 244 242 243 246 249 250 251 252 254 254 248 249 252 251 252 252 251 252 254 260 267 271 274 272 268 266 261 255 252 253 251 250 251 249 247 245 247 250 253 250 246 244 246 250 254 256 257 257 258 259 260 261 262 263 264 265 266 267 267 266 265 264 263 262 262 261 260 261 262 264 267 271 274 277 279 282 285 287
285 282 277 270 263 259 256 250 245 241 242 244 245 247 249 251 252 251 252 254 255 256 257 257 257 255 256 259 261 264 265 263 262 262 258 255 255 255 254 254 254 253 251 251 252 254 254 250 245 243 246 252 256 258 259 259 259 259 260 261 263 263 264 263 264 266 266 265 264 263 262 262 262 261 261 262 263 266 269 271 274 276 279 281 283
291 286 285 279 271 265 261 258 253 248 245 244 244 246 248 251 252 252 253 254 255 256 257 258 259 259 259 260 261 261 261 261 261 261 258 253 250 252 255 257 256 255 254 254 254 254 252 251 250 249 251 254 255 259 262 262 262 262 262 262 262 263 263 263 264 265 266 267 266 266 265 264 264 263 263 263 263 265 268 270 272 274 275 277 279
297 291 288 285 281 274 268 264 260 256 252 249 248 249 251 253 255 255 255 255 256 257 257 259 260 261 262 263 264 265 264 264 263 262 259 256 252 250 252 254 256 256 255 255 255 255 255 254 252 253 256 255 253 256 260 262 263 263 263 263 263 264 264 265 265 265 266 267 268 268 269 268 267 266 265 265 265 266 268 270 272 273 273 273 273
301 295 291 289 286 281 276 272 269 266 261 256 253 252 254 256 258 259 260 260 260 261 262 263 263 264 265 265 265 266 266 266 266 265 263 261 260 257 254 252 254 255 256 255 254 255 257 257 256 255 255 253 249 249 255 259 258 259 262 263 263 264 265 266 266 266 266 267 268 270 271 271 270 270 268 268 270 271 272 273 273 273 273 270 268
303 297 292 290 286 281 277 275 275 273 269 264 258 254 254 256 260 262 264 265 265 265 265 266 266 266 267 267 267 266 266 267 267 268 268 267 265 264 262 258 256 254 252 253 255 258 259 258 258 257 255 251 247 246 249 253 254 254 256 259 261 262 263 264 265 266 269 271 272 272 274 273 271 271 271 270 271 274 275 275 275 276 274 269 265
303 298 294 291 287 282 275 272 273 274 273 271 266 260 257 257 261 263 266 267 267 268 268 268 268 269 269 269 269 269 269 270 270 270 271 271 271 270 270 268 265 260 255 254 255 258 259 258 258 257 256 253 250 247 246 246 247 249 250 251 252 254 256 260 264 267 272 277 279 279 279 278 276 274 273 272 270 271 272 271 273 277 275 271 266
304 299 295 290 286 282 276 271 270 270 270 270 269 266 263 260 260 263 266 268 269 269 270 270 270 271 272 272 272 273 273 274 274 274 274 275 275 274 273 273 272 270 265 262 260 258 257 257 257 256 255 254 253 251 248 246 242 241 245 246 244 244 247 256 262 266 269 274 278 281 281 281 281 278 276 275 272 270 269 268 272 276 276 274 269
309 304 299 293 288 283 279 275 271 270 269 268 269 269 267 266 263 262 263 264 267 268 269 270 270 270 271 272 274 274 275 276 276 277 278 278 279 279 278 276 275 274 271 269 266 263 258 254 254 255 255 255 254 254 253 252 247 242 243 245 244 245 247 254 260 263 265 268 273 277 279 280 280 280 279 278 276 273 270 270 272 274 276 276 272
315 308 303 298 294 288 283 279 275 273 271 271 271 271 271 270 268 266 265 264 265 266 267 267 268 269 270 271 273 274 275 276 277 279 280 281 281 281 281 280 279 277 275 273 271 269 264 256 253 254 255 255 255 255 255 255 254 252 250 249 247 246 247 251 256 260 263 266 269 272 275 277 277 277 278 278 278 276 273 271 272 273 274 275 273
315 312 306 302 297 293 288 284 281 278 276 275 274 272 272 271 269 268 267 266 266 266 267 267 267 268 268 269 272 274 275 276 277 278 280 281 282 282 283 283 282 279 277 276 275 274 271 265 258 254 254 255 255 256 257 255 255 257 258 257 255 252 251 250 251 254 259 263 265 267 270 272 273 273 275 276 277 277 275 273 271 272 273 273 272
314 313 309 303 298 294 290 287 284 282 279 277 276 274 273 272 271 270 269 268 267 266 267 268 268 269 270 270 271 272 274 275 276 276 277 278 279 280 281 283 284 283 280 276 275 275 274 271 267 261 256 255 256 256 256 256 256 257 259 259 259 258 257 255 253 251 254 258 259 260 263 267 270 271 271 273 275 277 278 276 274 273 273 273 273
321 319 317 310 302 296 291 287 284 280 278 276 275 274 273 272 272 272 271 271 270 269 269 268 270 271 273 275 275 275 276 277 277 278 278 278 278 278 278 279 280 283 283 281 277 275 274 272 271 268 263 259 257 256 256 257 257 258 258 258 259 260 260 260 259 257 255 255 255 257 258 261 265 269 269 270 273 275 277 279 279 276 275 275 273
321 323 324 319 312 302 294 289 284 280 277 275 274 273 272 272 272 272 272 272 272 272 272 272 271 271 272 274 276 278 280 281 282 282 282 282 282 281 280 280 279 279 280 281 279 278 276 274 272 271 268 264 260 259 258 258 259 259 259 258 258 260 260 260 260 260 258 256 254 254 255 256 260 264 267 267 269 272 272 276 278 278 277 276 275
307 312 318 321 320 312 301 294 289 285 282 279 277 275 274 273 273 274 274 274 275 275 276 276 276 276 275 275 275 276 278 280 282 283 284 285 285 284 284 283 282 281 280 279 279 278 277 277 275 272 270 268 265 263 261 260 260 260 260 260 259 260 261 260 259 259 259 258 255 253 253 254 255 260 265 265 266 268 268 270 275 277 277 278 278
295 300 305 311 316 316 310 301 294 289 287 285 283 281 279 278 275 274 273 273 274 275 276 278 281 283 284 284 283 282 282 282 282 283 284 284 284 284 284 284 283 283 282 281 281 280 278 276 276 274 272 271 268 267 266 264 262 261 261 260 260 260 260 260 259 259 259 259 256 253 251 252 254 257 261 262 265 268 265 263 268 274 276 278 280
287 291 296 300 305 310 311 308 301 294 289 287 285 284 282 280 278 275 272 271 271 272 274 277 280 284 286 288 289 290 290 289 288 287 287 286 286 285 284 284 283 283 283 283 283 283 282 278 276 274 273 272 271 270 269 268 266 264 263 261 260 260 261 261 260 260 259 258 256 252 249 249 252 255 257 260 264 266 264 261 263 269 272 274 278
282 285 288 293 298 302 305 306 306 302 295 290 287 285 282 280 279 277 275 273 271 271 273 275 277 279 281 283 285 287 289 290 290 291 290 289 289 288 287 286 285 283 283 282 282 283 283 281 278 277 274 273 273 272 272 271 269 267 265 263 261 260 260 261 261 260 259 257 255 252 248 247 248 251 255 257 259 261 265 266 263 265 268 270 276
276 280 283 286 291 295 298 301 303 304 302 297 292 289 286 284 282 280 278 276 275 274 275 275 276 276 276 276 276 277 279 282 285 287 289 289 289 289 289 288 287 285 284 283 283 283 283 282 280 279 277 275 273 272 272 272 271 269 268 266 264 263 262 261 261 260 258 257 255 253 249 246 246 248 251 255 257 260 265 267 264 262 265 268 273
270 274 278 282 285 289 292 295 299 301 302 301 298 296 293 289 286 284 282 280 278 278 277 277 277 276 275 274 274 275 276 278 280 282 285 287 289 289 289 288 287 286 285 284 283 283 283 283 282 279 278 277 275 273 272 271 271 271 270 268 266 265 264 264 263 261 257 255 255 254 253 249 246 246 248 252 257 259 260 262 262 262 264 267 270
267 269 273 277 280 282 286 290 294 297 298 300 301 300 297 295 291 289 286 283 280 279 278 279 278 278 278 277 277 278 279 281 282 283 284 285 287 288 288 287 287 286 285 284 284 283 283 283 283 280 277 276 275 274 273 272 271 270 271 270 267 265 264 264 265 262 258 255 254 254 254 251 247 246 246 249 254 256 257 258 258 259 263 266 266
263 266 269 272 274 276 280 285 290 293 294 296 298 299 299 297 294 290 287 284 282 281 280 280 280 279 279 279 280 280 282 283 284 283 284 284 284 285 285 286 285 285 285 284 284 283 283 282 282 280 277 275 274 273 272 271 271 270 271 270 266 262 261 262 263 262 258 256 254 254 253 250 248 246 246 247 249 252 254 255 255 257 261 264 264
260 262 265 268 271 272 275 281 285 288 290 291 293 295 296 296 293 290 287 285 283 282 282 282 281 280 280 280 281 282 283 283 283 283 283 283 282 282 282 283 283 283 283 283 283 282 282 282 281 280 277 275 273 272 271 270 270 270 269 269 266 262 258 258 259 259 258 257 256 254 252 250 249 247 246 245 246 248 251 253 255 256 258 261 262
258 260 263 265 268 270 272 277 281 283 285 286 288 291 293 293 292 289 288 286 285 284 284 283 281 280 280 281 281 282 283 283 283 283 283 283 282 282 281 281 281 282 282 282 282 281 281 280 280 279 277 274 272 271 269 269 269 269 267 267 267 264 258 254 253 254 256 256 256 255 253 251 250 249 248 248 247 248 250 252 254 256 256 258 258
257 259 260 262 264 267 270 273 276 279 281 283 285 288 291 291 289 288 287 287 286 285 284 283 282 281 280 281 281 282 282 282 283 283 283 282 282 282 281 281 280 280 280 280 280 280 279 279 278 278 276 274 272 270 268 266 266 267 266 265 265 264 260 256 252 250 252 254 255 255 254 253 252 251 250 250 248 249 250 251 252 253 253 253 253
254 258 259 259 261 264 268 271 273 275 278 280 282 286 288 288 287 287 286 286 285 284 284 284 283 282 281 281 281 282 282 283 284 284 283 283 282 281 281 280 279 279 279 278 277 277 277 277 276 276 275 274 272 271 268 265 263 263 264 264 263 263 261 259 255 251 249 251 253 254 253 253 254 254 252 249 248 249 249 250 250 249 249 249 250
253 256 257 258 259 262 267 270 272 275 277 278 281 283 284 286 286 286 286 285 284 284 284 284 284 283 283 282 283 283 284 284 284 284 284 283 283 282 281 280 279 279 278 278 277 276 275 274 274 273 273 273 272 270 268 265 262 260 260 261 261 261 260 260 257 254 250 249 250 252 252 253 255 256 254 249 248 249 250 251 251 250 250 249 248
252 254 256 257 257 261 267 269 270 276 278 278 280 282 282 285 287 287 287 286 285 285 285 285 285 284 285 284 284 285 284 284 284 284 284 284 283 283 282 281 280 279 278 278 277 275 274 273 273 272 272 272 271 269 268 266 262 258 257 258 259 260 259 259 258 256 252 249 248 250 252 253 254 256 254 248 246 248 250 252 253 252 251 249 247
251 252 254 255 256 261 266 266 269 275 276 276 279 280 282 285 287 287 287 286 286 286 286 286 286 286 286 286 285 285 285 285 286 286 286 285 285 284 282 281 280 279 278 277 276 275 274 273 273 272 271 270 270 269 267 266 264 260 257 255 256 257 258 257 257 257 255 252 250 250 251 252 254 255 252 246 245 246 250 253 254 253 252 248 246
253 251 252 254 255 259 263 264 268 273 273 274 278 280 282 285 286 287 287 286 286 286 286 286 286 286 287 286 286 286 287 287 288 288 287 287 286 285 283 282 280 278 277 276 274 274 273 272 272 271 270 268 268 267 266 265 264 263 259 256 254 254 255 256 255 256 256 255 253 253 252 251 251 253 251 246 244 245 247 252 255 255 254 249 245
253 252 253 254 254 256 259 263 267 269 270 273 278 280 282 285 286 286 287 287 286 286 286 286 286 286 287 288 288 288 288 289 289 289 289 288 287 286 285 283 281 279 277 275 273 272 271 270 270 270 269 267 265 264 263 262 263 263 261 259 256 254 254 255 255 255 255 255 254 254 254 251 248 249 250 248 246 245 246 249 253 255 254 249 244
254 253 252 252 252 254 257 260 264 267 270 275 278 281 283 284 285 287 287 287 286 286 285 286 286 287 289 289 289 289 289 290 290 290 289 288 287 287 286 284 282 280 278 275 272 270 269 267 267 266 266 265 264 263 260 259 259 260 260 259 258 257 256 255 255 255 254 253 253 253 253 251 247 246 248 248 248 246 245 247 249 251 251 245 238
256 253 250 249 251 253 255 259 262 267 272 276 278 281 284 285 286 287 287 286 286 286 286 287 288 289 290 290 290 291 291 291 291 290 289 288 287 287 286 285 283 281 279 277 274 272 269 266 265 264 263 263 263 262 260 258 257 257 258 259 258 257 257 256 256 255 253 251 251 251 253 252 248 245 246 247 247 245 244 246 247 248 247 241 234
249 247 247 249 253 256 258 261 265 269 273 277 279 282 284 285 286 286 286 287 287 288 289 290 290 291 291 291 291 291 291 291 290 290 289 289 288 287 286 285 283 282 280 278 276 272 269 267 265 263 261 261 261 261 261 259 257 256 256 257 257 256 257 256 255 255 254 250 249 249 252 252 250 245 244 245 245 244 243 245 249 250 245 241 238